Chillicothe, MO

10:13 PM CST on December 13, 2019 (GMT -0600)
Chillicothe

Weather History for KCDJ - October, 2019

Change the Weather History Date:

Thursday, October 17, 2019

  Actual Average (WUND) Record (WUND)
Temperature  
Mean Temperature 50 °F -  
Max Temperature 64 °F - - (-1)
Min Temperature 35 °F - - (-1)
Degree Days  
Heating Degree Days 16    
Moisture  
Dew Point 41 °F    
Average Humidity 77    
Maximum Humidity 100    
Minimum Humidity 46    
Precipitation  
Precipitation 0.00 in - - ()
Sea Level Pressure  
Sea Level Pressure 30.03 in    
Wind  
Wind Speed 2 mph (SE)    
Max Wind Speed 9 mph    
Max Gust Speed 16 mph    
Averages and records for this station are not official NWS values.
T = Trace of Precipitation, MM = Missing Value Source: NWS Daily Summary

Daily Weather History Graph

Daily Weather History Graph

Search for Another Location

Airport or City:

Astronomy

Oct. 17, 2019 Rise Set
Actual Time 7:26 AM CDT 6:32 PM CDT
Civil Twilight 6:59 AM CDT 6:59 PM CDT
Nautical Twilight 6:27 AM CDT 7:30 PM CDT
Astronomical Twilight 5:56 AM CDT 8:02 PM CDT
Moon 9:04 PM CDT (10/17) 10:58 AM CDT (10/17)
Length of Visible Light 12h 00m
Length of Day
11h 05m
Waning Gibbous, 86% of the Moon is Illuminated
Oct 17
Waning Gibbous
Oct 21
Last Quarter
Oct 27
New
Nov 4
First Quarter
Nov 12
Full

Hourly Weather History & Observations

Time (CDT) Temp. Dew Point Humidity Pressure Visibility Wind Dir Wind Speed Gust Speed Precip Events Conditions
12:52 AM 37.0 °F 36.0 °F 96% 30.12 in - Calm Calm - N/A   Unknown
1:52 AM 37.0 °F 36.0 °F 96% 30.12 in - Calm Calm - N/A   Unknown
2:52 AM 36.0 °F 36.0 °F 100% 30.12 in - Calm Calm - N/A   Unknown
3:52 AM 36.0 °F 35.1 °F 97% 30.10 in - Calm Calm - N/A   Unknown
4:52 AM 36.0 °F 35.1 °F 97% 30.09 in - Calm Calm - N/A   Unknown
5:52 AM 36.0 °F 35.1 °F 97% 30.09 in - Calm Calm - N/A   Unknown
6:52 AM 35.1 °F 35.1 °F 100% 30.09 in - Calm Calm - N/A   Unknown
7:52 AM 37.0 °F 36.0 °F 96% 30.11 in - Calm Calm - N/A   Unknown
8:52 AM 42.1 °F 41.0 °F 96% 30.11 in - Calm Calm - N/A   Unknown
9:52 AM 48.0 °F 43.0 °F 83% 30.11 in - South 8.1 mph - N/A   Unknown
10:52 AM 54.0 °F 44.1 °F 69% 30.09 in - SSE 6.9 mph 16.1 mph N/A   Unknown
11:52 AM 57.0 °F 45.0 °F 64% 30.07 in - SE 4.6 mph - N/A   Unknown
1:52 PM 61.0 °F 45.0 °F 56% 30.01 in - SE 8.1 mph - N/A   Unknown
2:52 PM 63.0 °F 44.1 °F 50% 29.98 in - Variable 6.9 mph - N/A   Unknown
3:52 PM 64.0 °F 43.0 °F 46% 29.95 in - SE 5.8 mph - N/A   Unknown
4:52 PM 63.0 °F 45.0 °F 52% 29.94 in - SE 9.2 mph - N/A   Unknown
5:52 PM 61.0 °F 45.0 °F 56% 29.93 in - SE 5.8 mph - N/A   Unknown
7:52 PM 55.9 °F 44.1 °F 64% 29.94 in - SE 3.5 mph - N/A   Unknown
8:52 PM 55.0 °F 44.1 °F 67% 29.94 in - ESE 6.9 mph - N/A   Unknown
9:52 PM 54.0 °F 43.0 °F 66% 29.93 in - SE 5.8 mph - N/A   Unknown
10:52 PM 53.1 °F 43.0 °F 69% 29.93 in - SE 5.8 mph - N/A   Unknown
11:52 PM 52.0 °F 43.0 °F 71% 29.93 in - Variable 4.6 mph - N/A   Unknown